Regional Weather Roundup
Issued by NWS Charleston, WV

Home | Current Version | Previous Version | Graphics & Text | Print | Product List | Glossary On
Versions: 1 2 3 4 5 6 7 8 9 10 11 12 13 14 15 16 17 18 19 20 21 22 23 24 25 26 27 28 29 30 31 32 33 34 35 36 37 38 39 40 41 42 43 44 45 46 47 48 49 50
000
ASUS41 KRLX 060710
RWRRLX
West Virginia Regional Weather Roundup
National Weather Service Charleston WV
300 AM EDT WED MAY 06 2015

Note: "fair" indicates few or no clouds below 12,000 feet with no
significant weather and/or obstructions to visibility.

WVZ003-060800-
Northern Panhandle of West Virginia

CITY           SKY/WX    TMP DP  RH WIND       PRES   REMARKS
WHEELING       CLEAR     61  58  90 NE5       30.21F
$$

WVZ009-060800-
Northwest West Virginia

CITY           SKY/WX    TMP DP  RH WIND       PRES   REMARKS
PARKERSBURG    CLEAR     58  56  93 CALM      30.22F FOG
$$

WVZ006-060800-
Western West Virginia

CITY           SKY/WX    TMP DP  RH WIND       PRES   REMARKS
HUNTINGTON     CLEAR     58  56  93 CALM      30.21F
$$

WVZ015-060800-
West Central West Virginia

CITY           SKY/WX    TMP DP  RH WIND       PRES   REMARKS
CHARLESTON     CLEAR     59  56  89 CALM      30.21F
$$

WVZ022-031-060800-
North Central West Virginia

CITY           SKY/WX    TMP DP  RH WIND       PRES   REMARKS
CLARKSBURG     CLEAR     57  56  96 CALM      30.22F
MORGANTOWN     PTCLDY    61  56  83 CALM      30.23F
$$

WVZ025-035-042-045-060800-
Southern West Virginia

CITY           SKY/WX    TMP DP  RH WIND       PRES   REMARKS
BECKLEY        CLOUDY    61  50  67 CALM      30.28F
LOGAN            N/A     63  54  72 CALM      30.21F
BLUEFIELD      CLEAR     63  49  60 W3        30.30F
LEWISBURG      CLEAR     57  53  88 CALM      30.29S
$$

WVZ047-060800-
Northern Mountains of West Virginia

CITY           SKY/WX    TMP DP  RH WIND       PRES   REMARKS
ELKINS         FOG       50  48  93 CALM      30.28S VSB 3/4
$$

WVZ052-060800-
Eastern Panhandle of West Virginia

CITY           SKY/WX    TMP DP  RH WIND       PRES   REMARKS
MARTINSBURG    CLEAR     58  56  93 SE3       30.21F FOG
PETERSBURG     FOG       56  53  90 CALM      30.24S VSB 1/4
$$



USA.gov is the U.S. government's official web portal to all federal, state and local government web resources and services.